logo liguriameteo

Diretta Meteo Roosevelt Saint Eustatius, Antille Olandesigiovedì 13 giugno ore 04:55

Mappa
Sereno 28 °C Sereno 24 Ore: T.min 28 T.max 33
Ponente Est/Nord-Est Km/h 18.5 Punto di rugiada: 24 °C Umidità: 78% Visibilità: 0 Km
Il sole sorge alle: 05:35 Il sole tramonta alle: 18:48
13 Giugno 2024 04:55 tempo osservato: Sereno Sereno 28 78 1014 vento: Nord E/NE 18.5
13 Giugno 2024 03:55 tempo osservato: Sereno Sereno 28 78 1014 vento: Nord E 20.3
13 Giugno 2024 02:55 tempo osservato: Sereno Sereno 28 78 1014 vento: Nord E 20.3
13 Giugno 2024 01:55 tempo osservato: Sereno Sereno 28 83 1014 vento: Nord E/NE 20.3
13 Giugno 2024 00:55 tempo osservato: Sereno Sereno 28 78 1015 vento: Nord E 20.3
12 Giugno 2024 23:55 tempo osservato: Sereno Sereno 28 78 1016 vento: Nord E/NE 22.2
12 Giugno 2024 22:55 tempo osservato: Sereno Sereno 28 78 1016 vento: Nord E 24
12 Giugno 2024 21:55 tempo osservato: Sereno Sereno 28 78 1016 vento: Nord E 25.9
12 Giugno 2024 20:55 tempo osservato: Sereno Sereno 29 74 1016 vento: Nord E 27.8
12 Giugno 2024 19:55 tempo osservato: Sereno Sereno 29 74 1016 vento: Nord E 29.6
12 Giugno 2024 18:55 tempo osservato: Sereno Sereno 29 74 1016 vento: Nord E/NE 24
12 Giugno 2024 17:55 tempo osservato: Sereno Sereno 30 70 1015 vento: Nord E 22.2
12 Giugno 2024 16:55 tempo osservato: Sereno Sereno 31 70 1015 vento: Nord E/NE 24
12 Giugno 2024 15:55 tempo osservato: Sereno Sereno 31 66 1015 vento: Nord E 22.2
12 Giugno 2024 14:55 tempo osservato: Sereno Sereno 32 62 1016 vento: Nord E 24
12 Giugno 2024 13:55 tempo osservato: Sereno Sereno 32 62 1016 vento: Nord E 22.2
12 Giugno 2024 12:55 tempo osservato: Sereno Sereno 32 62 1017 vento: Nord E 22.2
12 Giugno 2024 11:55 tempo osservato: Sereno Sereno 32 62 1017 vento: Nord E 24
12 Giugno 2024 10:55 tempo osservato: Sereno Sereno 33 55 1017 vento: Nord E 22.2
12 Giugno 2024 09:55 tempo osservato: Sereno Sereno 31 66 1017 vento: Nord E 25.9
12 Giugno 2024 08:55 tempo osservato: Sereno Sereno 31 62 1017 vento: Nord E 25.9
12 Giugno 2024 07:55 tempo osservato: Sereno Sereno 30 66 1017 vento: Nord E 27.8
12 Giugno 2024 06:55 tempo osservato: Sereno Sereno 29 74 1017 vento: Nord E 24
12 Giugno 2024 05:55 tempo osservato: Sereno Sereno 28 74 1016 vento: Nord E 25.9